,,,PA_Meas_PMT16A,,PR_Meas_QMR101_102,,RH_Meas_QMH101,,SR_Meas_QMS101,,TA_Meas_QMH101,,GenWind,,GenWind,
date,time,status,PA,status,PR,status,RH,status,SR,status,TA,status,DirAvg,status,SpdAvg,
2010-09-27, 00:00:04,VALID,1010.78,VALID,0,VALID,102.185,VALID,0.105969,VALID,22.9519,VALID,333,VALID,0.757031,
2010-09-27, 00:01:04,VALID,1010.76,VALID,0,VALID,102.162,VALID,0.105969,VALID,22.9714,VALID,30,VALID,0.495313,
2010-09-27, 00:02:04,VALID,1010.73,VALID,0.5,VALID,102.147,VALID,0,VALID,23.0121,VALID,104,VALID,0.465625,
2010-09-27, 00:03:04,VALID,1010.68,VALID,0.5,VALID,102.139,VALID,0,VALID,23.0316,VALID,346,VALID,0,
2010-09-27, 00:04:04,VALID,1010.64,VALID,0.5,VALID,102.162,VALID,0,VALID,23.0121,VALID,28,VALID,0.427344,
2010-09-27, 00:05:04,VALID,1010.64,VALID,0,VALID,102.17,VALID,0,VALID,22.9714,VALID,26,VALID,0.546875,
2010-09-27, 00:06:04,VALID,1010.59,VALID,0,VALID,102.162,VALID,0.105969,VALID,23.0121,VALID,348,VALID,0.128906,
2010-09-27, 00:07:04,VALID,1010.56,VALID,0,VALID,102.139,VALID,0,VALID,22.9909,VALID,280,VALID,1.02383,
2010-09-27, 00:08:04,VALID,1010.56,VALID,0,VALID,102.139,VALID,0,VALID,22.9714,VALID,269,VALID,0.635156,
2010-09-27, 00:09:04,VALID,1010.53,VALID,0,VALID,102.116,VALID,0,VALID,23.0316,VALID,269,VALID,0.550781,
2010-09-27, 00:10:04,VALID,1010.48,VALID,0,VALID,102.116,VALID,0,VALID,23.0298,VALID,267,VALID,0.831641,
2010-09-27, 00:11:04,VALID,1010.51,VALID,0,VALID,102.109,VALID,0,VALID,23.0705,VALID,255,VALID,0.59375,
2010-09-27, 00:12:04,VALID,1010.5,VALID,0,VALID,102.094,VALID,0,VALID,23.0493,VALID,304,VALID,0.480078,
2010-09-27, 00:13:04,VALID,1010.5,VALID,0,VALID,102.063,VALID,0,VALID,23.09,VALID,307,VALID,0.173438,
2010-09-27, 00:14:04,VALID,1010.44,VALID,0,VALID,102.033,VALID,0.105969,VALID,23.1077,VALID,319,VALID,0.240625,
2010-09-27, 00:15:04,VALID,1010.43,VALID,0,VALID,102.017,VALID,0,VALID,23.1485,VALID,317,VALID,0,
2010-09-27, 00:16:04,VALID,1010.43,VALID,0,VALID,102.048,VALID,0,VALID,23.1467,VALID,296,VALID,0.348828,
2010-09-27, 00:17:04,VALID,1010.43,VALID,0,VALID,102.04,VALID,0,VALID,23.1679,VALID,282,VALID,0.766406,
2010-09-27, 00:18:04,VALID,1010.45,VALID,0,VALID,102.048,VALID,0.105969,VALID,23.1662,VALID,280,VALID,0.748828,
2010-09-27, 00:19:04,VALID,1010.45,VALID,0,VALID,102.071,VALID,0.105969,VALID,23.1467,VALID,286,VALID,0.335938,
2010-09-27, 00:20:04,VALID,1010.46,VALID,0,VALID,102.04,VALID,0.105969,VALID,23.1662,VALID,287,VALID,0.297656,
2010-09-27, 00:21:04,VALID,1010.47,VALID,0,VALID,102.048,VALID,0,VALID,23.1857,VALID,277,VALID,0.375391,
2010-09-27, 00:22:04,VALID,1010.45,VALID,0,VALID,102.086,VALID,0,VALID,23.1679,VALID,235,VALID,0.564844,
2010-09-27, 00:23:04,VALID,1010.48,VALID,0,VALID,102.078,VALID,0.105969,VALID,23.1467,VALID,274,VALID,0.724219,
2010-09-27, 00:24:04,VALID,1010.5,VALID,0.5,VALID,102.078,VALID,0,VALID,23.1272,VALID,240,VALID,0.46875,
2010-09-27, 00:25:04,VALID,1010.5,VALID,0,VALID,102.078,VALID,0.105969,VALID,23.1272,VALID,213,VALID,1.05156,
2010-09-27, 00:26:04,VALID,1010.53,VALID,0,VALID,102.086,VALID,0,VALID,23.0883,VALID,212,VALID,1.15313,
2010-09-27, 00:27:04,VALID,1010.55,VALID,0,VALID,102.071,VALID,0.105969,VALID,23.1095,VALID,221,VALID,0.773438,
2010-09-27, 00:28:04,VALID,1010.56,VALID,0,VALID,102.071,VALID,0.105969,VALID,23.0688,VALID,223,VALID,0.517969,
2010-09-27, 00:29:04,VALID,1010.52,VALID,0,VALID,102.071,VALID,0.105969,VALID,23.0883,VALID,249,VALID,0,
2010-09-27, 00:30:04,VALID,1010.5,VALID,0,VALID,102.078,VALID,0,VALID,23.0688,VALID,295,VALID,0.332812,
2010-09-27, 00:31:04,VALID,1010.49,VALID,0,VALID,102.109,VALID,0.105969,VALID,23.0705,VALID,308,VALID,0.715625,
2010-09-27, 00:32:04,VALID,1010.48,VALID,0,VALID,102.155,VALID,0,VALID,22.9714,VALID,305,VALID,0.661328,
2010-09-27, 00:33:04,VALID,1010.46,VALID,0,VALID,102.185,VALID,0.105969,VALID,22.9324,VALID,323,VALID,1.00352,
2010-09-27, 00:34:04,VALID,1010.46,VALID,0,VALID,102.185,VALID,0,VALID,22.9147,VALID,273,VALID,0.590234,
2010-09-27, 00:35:04,VALID,1010.45,VALID,0,VALID,102.177,VALID,0.105969,VALID,22.8757,VALID,267,VALID,0.652734,
2010-09-27, 00:36:04,VALID,1010.48,VALID,0,VALID,102.147,VALID,0,VALID,22.8757,VALID,286,VALID,0.345313,
2010-09-27, 00:37:04,VALID,1010.45,VALID,0,VALID,102.094,VALID,0,VALID,22.874,VALID,238,VALID,0.160156,
2010-09-27, 00:38:04,VALID,1010.46,VALID,0,VALID,102.086,VALID,0,VALID,22.9147,VALID,211,VALID,0.428516,
2010-09-27, 00:39:04,VALID,1010.45,VALID,0,VALID,102.048,VALID,0.105969,VALID,22.9324,VALID,231,VALID,0.0921875,
2010-09-27, 00:40:04,VALID,1010.41,VALID,0,VALID,102.048,VALID,0.105969,VALID,22.9519,VALID,231,VALID,0.250781,
2010-09-27, 00:41:04,VALID,1010.4,VALID,0,VALID,102.048,VALID,0.105969,VALID,22.9519,VALID,274,VALID,0.415234,
2010-09-27, 00:42:04,VALID,1010.36,VALID,0,VALID,102.048,VALID,0,VALID,22.9731,VALID,283,VALID,0.355469,
2010-09-27, 00:43:04,VALID,1010.3,VALID,0,VALID,102.04,VALID,0.105969,VALID,22.9731,VALID,295,VALID,0.304688,
2010-09-27, 00:44:04,VALID,1010.29,VALID,0,VALID,102.025,VALID,0,VALID,22.9714,VALID,288,VALID,0.663672,
2010-09-27, 00:45:04,VALID,1010.31,VALID,0,VALID,102.01,VALID,0,VALID,22.9909,VALID,279,VALID,0.284375,
2010-09-27, 00:46:04,VALID,1010.3,VALID,0,VALID,101.979,VALID,0,VALID,23.0298,VALID,222,VALID,0.520312,
2010-09-27, 00:47:04,VALID,1010.27,VALID,0,VALID,101.987,VALID,0.105969,VALID,23.0493,VALID,225,VALID,0.389844,
2010-09-27, 00:48:04,VALID,1010.29,VALID,0,VALID,101.979,VALID,0,VALID,23.0688,VALID,215,VALID,0.195703,
2010-09-27, 00:49:04,VALID,1010.27,VALID,0,VALID,101.964,VALID,0.105969,VALID,23.1077,VALID,214,VALID,0.3,
2010-09-27, 00:50:04,VALID,1010.24,VALID,0,VALID,101.956,VALID,0.105969,VALID,23.1272,VALID,214,VALID,0,
2010-09-27, 00:51:04,VALID,1010.23,VALID,0,VALID,101.933,VALID,0,VALID,23.1679,VALID,214,VALID,0,
2010-09-27, 00:52:04,VALID,1010.22,VALID,0,VALID,101.933,VALID,0,VALID,23.1467,VALID,240,VALID,0.119141,
2010-09-27, 00:53:04,VALID,1010.18,VALID,0,VALID,101.918,VALID,0,VALID,23.1874,VALID,240,VALID,0,
2010-09-27, 00:54:04,VALID,1010.16,VALID,0,VALID,101.895,VALID,0,VALID,23.2051,VALID,268,VALID,0.0347656,
2010-09-27, 00:55:04,VALID,1010.11,VALID,0,VALID,101.865,VALID,0.105969,VALID,23.2636,VALID,302,VALID,0,
2010-09-27, 00:56:04,VALID,1010.07,VALID,0,VALID,101.85,VALID,0.105969,VALID,23.2831,VALID,309,VALID,0.00429688,
2010-09-27, 00:57:04,VALID,1010.08,VALID,0,VALID,101.888,VALID,0.105969,VALID,23.2831,VALID,310,VALID,0,
2010-09-27, 00:58:04,VALID,1010.05,VALID,0,VALID,101.888,VALID,0.105969,VALID,23.2831,VALID,307,VALID,0.439063,
2010-09-27, 00:59:04,VALID,1010.03,VALID,0,VALID,101.888,VALID,0.105969,VALID,23.2831,VALID,306,VALID,0,
2010-09-27, 01:00:04,VALID,1010.02,VALID,0,VALID,101.895,VALID,0.105969,VALID,23.3238,VALID,306,VALID,0,
2010-09-27, 01:01:04,VALID,1009.99,VALID,0,VALID,101.888,VALID,0,VALID,23.2831,VALID,309,VALID,0.537891,
2010-09-27, 01:02:04,VALID,1009.99,VALID,0,VALID,101.872,VALID,0,VALID,23.322,VALID,307,VALID,0.346875,
2010-09-27, 01:03:04,VALID,1009.95,VALID,0,VALID,101.857,VALID,0,VALID,23.3415,VALID,306,VALID,0,
2010-09-27, 01:04:04,VALID,1009.94,VALID,0,VALID,101.834,VALID,0,VALID,23.361,VALID,306,VALID,0.0160156,
2010-09-27, 01:05:04,VALID,1009.88,VALID,0,VALID,101.834,VALID,0,VALID,23.4212,VALID,306,VALID,0.00195313,
2010-09-27, 01:06:04,VALID,1009.87,VALID,0,VALID,101.819,VALID,0,VALID,23.4602,VALID,306,VALID,0,
2010-09-27, 01:07:04,VALID,1009.87,VALID,0,VALID,101.834,VALID,0,VALID,23.4602,VALID,306,VALID,0.00390625,
2010-09-27, 01:08:04,VALID,1009.84,VALID,0,VALID,101.804,VALID,0,VALID,23.4602,VALID,306,VALID,0,
2010-09-27, 01:09:04,VALID,1009.84,VALID,0,VALID,101.827,VALID,0,VALID,23.4797,VALID,306,VALID,0,
2010-09-27, 01:10:04,VALID,1009.82,VALID,0,VALID,101.842,VALID,0,VALID,23.4602,VALID,306,VALID,0,
2010-09-27, 01:11:04,VALID,1009.81,VALID,0,VALID,101.85,VALID,0,VALID,23.462,VALID,306,VALID,0,
2010-09-27, 01:12:04,VALID,1009.78,VALID,0,VALID,101.834,VALID,0,VALID,23.4407,VALID,306,VALID,0,
2010-09-27, 01:13:04,VALID,1009.78,VALID,0,VALID,101.811,VALID,0,VALID,23.5204,VALID,306,VALID,0,
2010-09-27, 01:14:04,VALID,1009.73,VALID,0,VALID,101.811,VALID,0,VALID,23.5009,VALID,306,VALID,0,
2010-09-27, 01:15:04,VALID,1009.73,VALID,0,VALID,101.842,VALID,0,VALID,23.4602,VALID,306,VALID,0.288281,
2010-09-27, 01:16:04,VALID,1009.72,VALID,0,VALID,101.85,VALID,0,VALID,23.4602,VALID,306,VALID,0.387109,
2010-09-27, 01:17:04,VALID,1009.7,VALID,0,VALID,101.865,VALID,0,VALID,23.4407,VALID,306,VALID,0.249609,
2010-09-27, 01:18:04,VALID,1009.69,VALID,0,VALID,101.842,VALID,0,VALID,23.4425,VALID,306,VALID,0.2875,
2010-09-27, 01:19:04,VALID,1009.71,VALID,0,VALID,101.85,VALID,0,VALID,23.4017,VALID,306,VALID,0.310156,
2010-09-27, 01:20:04,VALID,1009.71,VALID,0,VALID,101.865,VALID,0,VALID,23.4017,VALID,306,VALID,0.157031,
2010-09-27, 01:21:04,VALID,1009.7,VALID,0,VALID,101.857,VALID,0,VALID,23.4017,VALID,306,VALID,0,
2010-09-27, 01:22:04,VALID,1009.7,VALID,0,VALID,101.857,VALID,0,VALID,23.4407,VALID,306,VALID,0.00234375,
2010-09-27, 01:23:04,VALID,1009.67,VALID,0,VALID,101.85,VALID,0,VALID,23.4,VALID,306,VALID,0,
2010-09-27, 01:24:04,VALID,1009.71,VALID,0,VALID,101.842,VALID,0,VALID,23.4,VALID,306,VALID,0,
2010-09-27, 01:25:04,VALID,1009.67,VALID,0,VALID,101.827,VALID,0.105969,VALID,23.4,VALID,306,VALID,0,
2010-09-27, 01:26:04,VALID,1009.67,VALID,0,VALID,101.827,VALID,0,VALID,23.4407,VALID,306,VALID,0,
2010-09-27, 01:27:04,VALID,1009.66,VALID,0,VALID,101.819,VALID,0.105969,VALID,23.4407,VALID,306,VALID,0,
2010-09-27, 01:28:04,VALID,1009.65,VALID,0,VALID,101.796,VALID,0,VALID,23.4194,VALID,306,VALID,0,
2010-09-27, 01:29:04,VALID,1009.66,VALID,0,VALID,101.804,VALID,0.105969,VALID,23.4389,VALID,306,VALID,0.200781,
2010-09-27, 01:30:04,VALID,1009.67,VALID,0,VALID,101.842,VALID,0,VALID,23.4407,VALID,306,VALID,0.217969,
2010-09-27, 01:31:04,VALID,1009.64,VALID,0,VALID,101.811,VALID,0,VALID,23.4194,VALID,306,VALID,0,
2010-09-27, 01:32:04,VALID,1009.67,VALID,0,VALID,101.804,VALID,0,VALID,23.4602,VALID,306,VALID,0,
2010-09-27, 01:33:04,VALID,1009.65,VALID,0,VALID,101.781,VALID,0,VALID,23.4584,VALID,306,VALID,0,
2010-09-27, 01:34:04,VALID,1009.68,VALID,0,VALID,101.766,VALID,0.105969,VALID,23.4779,VALID,232,VALID,0.308203,
2010-09-27, 01:35:04,VALID,1009.66,VALID,0,VALID,101.758,VALID,0,VALID,23.5381,VALID,222,VALID,0.598437,
2010-09-27, 01:36:04,VALID,1009.68,VALID,0,VALID,101.712,VALID,0.105969,VALID,23.5771,VALID,216,VALID,0.505469,
2010-09-27, 01:37:04,VALID,1009.7,VALID,0,VALID,101.72,VALID,0,VALID,23.5771,VALID,216,VALID,0.496094,
2010-09-27, 01:38:04,VALID,1009.71,VALID,0,VALID,101.735,VALID,0,VALID,23.5771,VALID,216,VALID,0.263281,
2010-09-27, 01:39:04,VALID,1009.69,VALID,0,VALID,101.735,VALID,0,VALID,23.5771,VALID,216,VALID,0,
2010-09-27, 01:40:04,VALID,1009.7,VALID,0,VALID,101.72,VALID,0,VALID,23.5966,VALID,216,VALID,0,
2010-09-27, 01:41:04,VALID,1009.67,VALID,0,VALID,101.72,VALID,0,VALID,23.6161,VALID,216,VALID,0,
2010-09-27, 01:42:04,VALID,1009.69,VALID,0,VALID,101.697,VALID,0,VALID,23.6356,VALID,216,VALID,0,
2010-09-27, 01:43:04,VALID,1009.66,VALID,0,VALID,101.712,VALID,0,VALID,23.655,VALID,216,VALID,0,
2010-09-27, 01:44:04,VALID,1009.64,VALID,0,VALID,101.689,VALID,0,VALID,23.655,VALID,216,VALID,0,
2010-09-27, 01:45:04,VALID,1009.64,VALID,0,VALID,101.712,VALID,0,VALID,23.655,VALID,216,VALID,0,
2010-09-27, 01:46:04,VALID,1009.63,VALID,0,VALID,101.712,VALID,0,VALID,23.6763,VALID,216,VALID,0,
2010-09-27, 01:47:04,VALID,1009.61,VALID,0,VALID,101.712,VALID,0,VALID,23.6958,VALID,216,VALID,0,
2010-09-27, 01:48:04,VALID,1009.61,VALID,0,VALID,101.705,VALID,0,VALID,23.655,VALID,222,VALID,0.529688,
2010-09-27, 01:49:04,VALID,1009.63,VALID,0,VALID,101.712,VALID,0,VALID,23.6745,VALID,219,VALID,0.535156,
2010-09-27, 01:50:04,VALID,1009.65,VALID,0,VALID,101.682,VALID,0,VALID,23.7153,VALID,215,VALID,0.635156,
2010-09-27, 01:51:04,VALID,1009.62,VALID,0,VALID,101.689,VALID,0,VALID,23.7153,VALID,234,VALID,0.573828,
2010-09-27, 01:52:04,VALID,1009.64,VALID,0,VALID,101.697,VALID,0.105969,VALID,23.7135,VALID,212,VALID,0.584375,
2010-09-27, 01:53:04,VALID,1009.6,VALID,0,VALID,101.712,VALID,0.105969,VALID,23.6727,VALID,210,VALID,0.591406,
2010-09-27, 01:54:04,VALID,1009.58,VALID,0,VALID,101.72,VALID,0,VALID,23.6922,VALID,210,VALID,0.228125,
2010-09-27, 01:55:04,VALID,1009.52,VALID,0,VALID,101.697,VALID,0,VALID,23.6727,VALID,238,VALID,0.477734,
2010-09-27, 01:56:04,VALID,1009.52,VALID,0,VALID,101.712,VALID,0.105969,VALID,23.694,VALID,237,VALID,0.194531,
2010-09-27, 01:57:04,VALID,1009.48,VALID,0,VALID,101.689,VALID,0.105969,VALID,23.733,VALID,237,VALID,0,
2010-09-27, 01:58:04,VALID,1009.49,VALID,0,VALID,101.689,VALID,0.105969,VALID,23.7117,VALID,161,VALID,0.204297,
2010-09-27, 01:59:04,VALID,1009.47,VALID,0,VALID,101.712,VALID,0,VALID,23.6727,VALID,161,VALID,0.635156,
2010-09-27, 02:00:04,VALID,1009.48,VALID,0,VALID,101.728,VALID,0,VALID,23.6532,VALID,151,VALID,0.433594,
2010-09-27, 02:01:04,VALID,1009.46,VALID,0,VALID,101.697,VALID,0,VALID,23.6922,VALID,160,VALID,0.478906,
2010-09-27, 02:02:04,VALID,1009.44,VALID,0,VALID,101.682,VALID,0,VALID,23.6922,VALID,160,VALID,0.301172,
2010-09-27, 02:03:04,VALID,1009.4,VALID,0,VALID,101.743,VALID,0.105969,VALID,23.6338,VALID,203,VALID,0.255859,
2010-09-27, 02:04:04,VALID,1009.43,VALID,0,VALID,101.735,VALID,0,VALID,23.6143,VALID,203,VALID,0.0105469,
2010-09-27, 02:05:04,VALID,1009.35,VALID,0,VALID,101.712,VALID,0,VALID,23.6143,VALID,203,VALID,0.0617188,
2010-09-27, 02:06:04,VALID,1009.4,VALID,0,VALID,101.735,VALID,0.105969,VALID,23.5948,VALID,167,VALID,0.582031,
2010-09-27, 02:07:04,VALID,1009.4,VALID,0,VALID,101.758,VALID,0,VALID,23.5576,VALID,167,VALID,0.412109,
2010-09-27, 02:08:04,VALID,1009.41,VALID,0,VALID,101.743,VALID,0,VALID,23.5576,VALID,168,VALID,0.523047,
2010-09-27, 02:09:04,VALID,1009.41,VALID,0,VALID,101.712,VALID,0,VALID,23.5771,VALID,168,VALID,0.385547,
2010-09-27, 02:10:04,VALID,1009.4,VALID,0,VALID,101.728,VALID,0,VALID,23.5576,VALID,168,VALID,0.432031,
2010-09-27, 02:11:04,VALID,1009.42,VALID,0,VALID,101.697,VALID,0,VALID,23.5966,VALID,168,VALID,0.126172,
2010-09-27, 02:12:04,VALID,1009.4,VALID,0,VALID,101.682,VALID,0,VALID,23.5966,VALID,168,VALID,0.310547,
2010-09-27, 02:13:04,VALID,1009.38,VALID,0,VALID,101.651,VALID,0,VALID,23.6356,VALID,168,VALID,0.00664063,
2010-09-27, 02:14:04,VALID,1009.38,VALID,0,VALID,101.682,VALID,0,VALID,23.6373,VALID,214,VALID,0.461719,
2010-09-27, 02:15:04,VALID,1009.39,VALID,0,VALID,101.712,VALID,0,VALID,23.5966,VALID,229,VALID,0.145313,
2010-09-27, 02:16:04,VALID,1009.36,VALID,0,VALID,101.689,VALID,0,VALID,23.6161,VALID,220,VALID,0.304297,
2010-09-27, 02:17:04,VALID,1009.34,VALID,0,VALID,101.697,VALID,0,VALID,23.5771,VALID,219,VALID,0.364844,
2010-09-27, 02:18:04,VALID,1009.38,VALID,0,VALID,101.712,VALID,0,VALID,23.6179,VALID,219,VALID,0.08125,
2010-09-27, 02:19:04,VALID,1009.37,VALID,0,VALID,101.674,VALID,0,VALID,23.6161,VALID,219,VALID,0,
2010-09-27, 02:20:04,VALID,1009.4,VALID,0,VALID,101.667,VALID,0,VALID,23.6161,VALID,220,VALID,0.203516,
2010-09-27, 02:21:04,VALID,1009.39,VALID,0,VALID,101.674,VALID,0,VALID,23.5771,VALID,220,VALID,0.284375,
2010-09-27, 02:22:04,VALID,1009.39,VALID,0,VALID,101.697,VALID,0,VALID,23.5966,VALID,220,VALID,0.258203,
2010-09-27, 02:23:04,VALID,1009.36,VALID,0,VALID,101.689,VALID,0,VALID,23.5771,VALID,279,VALID,0.139062,
2010-09-27, 02:24:04,VALID,1009.35,VALID,0,VALID,101.697,VALID,0,VALID,23.5771,VALID,217,VALID,0.468359,
2010-09-27, 02:25:04,VALID,1009.32,VALID,0,VALID,101.697,VALID,0,VALID,23.5771,VALID,225,VALID,0.148828,
2010-09-27, 02:26:04,VALID,1009.35,VALID,0,VALID,101.667,VALID,0,VALID,23.5984,VALID,212,VALID,1.08047,
2010-09-27, 02:27:04,VALID,1009.34,VALID,0,VALID,101.689,VALID,0,VALID,23.5576,VALID,235,VALID,0.492969,
2010-09-27, 02:28:04,VALID,1009.32,VALID,0,VALID,101.667,VALID,0,VALID,23.5771,VALID,229,VALID,0.8375,
2010-09-27, 02:29:04,VALID,1009.32,VALID,0,VALID,101.682,VALID,0,VALID,23.5771,VALID,234,VALID,0.683203,
2010-09-27, 02:30:04,VALID,1009.31,VALID,0,VALID,101.674,VALID,0,VALID,23.5771,VALID,229,VALID,0.741797,
2010-09-27, 02:31:04,VALID,1009.3,VALID,0,VALID,101.651,VALID,0,VALID,23.5966,VALID,220,VALID,0.577734,
2010-09-27, 02:32:04,VALID,1009.32,VALID,0,VALID,101.651,VALID,0,VALID,23.5771,VALID,198,VALID,1.09687,
2010-09-27, 02:33:04,VALID,1009.33,VALID,0,VALID,101.667,VALID,0,VALID,23.5771,VALID,202,VALID,1.07187,
2010-09-27, 02:34:04,VALID,1009.32,VALID,0,VALID,101.697,VALID,0,VALID,23.5594,VALID,206,VALID,0.757422,
2010-09-27, 02:35:04,VALID,1009.32,VALID,0,VALID,101.667,VALID,0,VALID,23.5984,VALID,196,VALID,0.750391,
2010-09-27, 02:36:04,VALID,1009.37,VALID,0,VALID,101.651,VALID,0,VALID,23.5966,VALID,173,VALID,1.05859,
2010-09-27, 02:37:04,VALID,1009.39,VALID,0,VALID,101.659,VALID,0,VALID,23.5966,VALID,165,VALID,0.621094,
2010-09-27, 02:38:04,VALID,1009.42,VALID,0,VALID,101.636,VALID,0,VALID,23.6161,VALID,162,VALID,0.632813,
2010-09-27, 02:39:04,VALID,1009.44,VALID,0,VALID,101.628,VALID,0,VALID,23.6161,VALID,171,VALID,0.413281,
2010-09-27, 02:40:04,VALID,1009.44,VALID,0,VALID,101.644,VALID,0,VALID,23.6161,VALID,158,VALID,0.572266,
2010-09-27, 02:41:04,VALID,1009.43,VALID,0,VALID,101.674,VALID,0,VALID,23.5966,VALID,157,VALID,0.530469,
2010-09-27, 02:42:04,VALID,1009.43,VALID,0,VALID,101.667,VALID,0,VALID,23.5966,VALID,157,VALID,0.535937,
2010-09-27, 02:43:04,VALID,1009.45,VALID,0,VALID,101.674,VALID,0,VALID,23.5771,VALID,157,VALID,0.676953,
2010-09-27, 02:44:04,VALID,1009.46,VALID,0,VALID,101.667,VALID,0,VALID,23.5771,VALID,159,VALID,0.457422,
2010-09-27, 02:45:04,VALID,1009.47,VALID,0,VALID,101.644,VALID,0,VALID,23.5966,VALID,195,VALID,0.755859,
2010-09-27, 02:46:04,VALID,1009.48,VALID,0,VALID,101.628,VALID,0,VALID,23.5966,VALID,195,VALID,0.471484,
2010-09-27, 02:47:04,VALID,1009.51,VALID,0,VALID,101.644,VALID,0,VALID,23.5948,VALID,201,VALID,0.35625,
2010-09-27, 02:48:04,VALID,1009.48,VALID,0,VALID,101.621,VALID,0,VALID,23.5966,VALID,215,VALID,0.567187,
2010-09-27, 02:49:04,VALID,1009.47,VALID,0,VALID,101.674,VALID,0,VALID,23.5966,VALID,217,VALID,0.803125,
2010-09-27, 02:50:04,VALID,1009.46,VALID,0,VALID,101.659,VALID,0,VALID,23.5771,VALID,222,VALID,0.500391,
2010-09-27, 02:51:04,VALID,1009.43,VALID,0,VALID,101.613,VALID,0,VALID,23.5771,VALID,241,VALID,0.0152344,
2010-09-27, 02:52:04,VALID,1009.46,VALID,0,VALID,101.636,VALID,0.105969,VALID,23.5948,VALID,241,VALID,0.289844,
2010-09-27, 02:53:04,VALID,1009.45,VALID,0,VALID,101.628,VALID,0,VALID,23.5948,VALID,236,VALID,0.0792969,
2010-09-27, 02:54:04,VALID,1009.48,VALID,0,VALID,101.659,VALID,0.105969,VALID,23.5966,VALID,221,VALID,1.08281,
2010-09-27, 02:55:04,VALID,1009.49,VALID,0,VALID,101.674,VALID,0.105969,VALID,23.5363,VALID,216,VALID,0.711719,
2010-09-27, 02:56:04,VALID,1009.51,VALID,0,VALID,101.667,VALID,0.105969,VALID,23.5363,VALID,208,VALID,0.6625,
2010-09-27, 02:57:04,VALID,1009.5,VALID,0,VALID,101.659,VALID,0.105969,VALID,23.5169,VALID,219,VALID,0.841406,
2010-09-27, 02:58:04,VALID,1009.54,VALID,0,VALID,101.689,VALID,0.105969,VALID,23.5186,VALID,214,VALID,0.893359,
2010-09-27, 02:59:04,VALID,1009.55,VALID,0,VALID,101.682,VALID,0.105969,VALID,23.5169,VALID,219,VALID,0.675,
2010-09-27, 03:00:04,VALID,1009.54,VALID,0,VALID,101.651,VALID,0,VALID,23.5169,VALID,242,VALID,0.827344,
2010-09-27, 03:01:04,VALID,1009.51,VALID,0,VALID,101.636,VALID,0,VALID,23.5363,VALID,235,VALID,0.605859,
2010-09-27, 03:02:04,VALID,1009.5,VALID,0,VALID,101.621,VALID,0,VALID,23.5558,VALID,249,VALID,0.352734,
2010-09-27, 03:03:04,VALID,1009.53,VALID,0,VALID,101.621,VALID,0.105969,VALID,23.5966,VALID,244,VALID,0.0488281,
2010-09-27, 03:04:04,VALID,1009.52,VALID,0,VALID,101.636,VALID,0,VALID,23.5558,VALID,231,VALID,0.630469,
2010-09-27, 03:05:04,VALID,1009.53,VALID,0,VALID,101.636,VALID,0.105969,VALID,23.5753,VALID,220,VALID,0.796094,
2010-09-27, 03:06:04,VALID,1009.53,VALID,0,VALID,101.674,VALID,0.105969,VALID,23.5363,VALID,221,VALID,0.763672,
2010-09-27, 03:07:04,VALID,1009.52,VALID,0,VALID,101.667,VALID,0,VALID,23.5576,VALID,225,VALID,0.964844,
2010-09-27, 03:08:04,VALID,1009.52,VALID,0,VALID,101.682,VALID,0,VALID,23.5186,VALID,215,VALID,0.809766,
2010-09-27, 03:09:04,VALID,1009.55,VALID,0,VALID,101.682,VALID,0,VALID,23.4992,VALID,209,VALID,1.06562,
2010-09-27, 03:10:04,VALID,1009.55,VALID,0,VALID,101.682,VALID,0,VALID,23.4797,VALID,210,VALID,0.708594,
2010-09-27, 03:11:04,VALID,1009.59,VALID,0,VALID,101.705,VALID,0,VALID,23.4797,VALID,210,VALID,0.324219,
2010-09-27, 03:12:04,VALID,1009.61,VALID,0,VALID,101.674,VALID,0,VALID,23.4797,VALID,204,VALID,0.718359,
2010-09-27, 03:13:04,VALID,1009.63,VALID,0,VALID,101.674,VALID,0,VALID,23.4797,VALID,192,VALID,0.262891,
2010-09-27, 03:14:04,VALID,1009.62,VALID,0,VALID,101.667,VALID,0,VALID,23.4992,VALID,200,VALID,0.616016,
2010-09-27, 03:15:04,VALID,1009.62,VALID,0,VALID,101.659,VALID,0,VALID,23.4992,VALID,199,VALID,0.370703,
2010-09-27, 03:16:04,VALID,1009.64,VALID,0,VALID,101.644,VALID,0,VALID,23.5399,VALID,199,VALID,0.420703,
2010-09-27, 03:17:04,VALID,1009.63,VALID,0,VALID,101.628,VALID,0,VALID,23.5771,VALID,199,VALID,0.276563,
2010-09-27, 03:18:04,VALID,1009.6,VALID,0,VALID,101.628,VALID,0,VALID,23.5576,VALID,199,VALID,0.302344,
2010-09-27, 03:19:04,VALID,1009.58,VALID,0,VALID,101.659,VALID,0,VALID,23.5186,VALID,199,VALID,0.202734,
2010-09-27, 03:20:04,VALID,1009.57,VALID,0,VALID,101.628,VALID,0,VALID,23.5594,VALID,199,VALID,0.197266,
2010-09-27, 03:21:04,VALID,1009.52,VALID,0,VALID,101.628,VALID,0,VALID,23.5576,VALID,199,VALID,0,
2010-09-27, 03:22:04,VALID,1009.51,VALID,0,VALID,101.598,VALID,0,VALID,23.5753,VALID,199,VALID,0.0304688,
2010-09-27, 03:23:04,VALID,1009.52,VALID,0,VALID,101.598,VALID,0,VALID,23.5966,VALID,206,VALID,0,
2010-09-27, 03:24:04,VALID,1009.5,VALID,0,VALID,101.621,VALID,0.105969,VALID,23.5753,VALID,206,VALID,0,
2010-09-27, 03:25:04,VALID,1009.52,VALID,0,VALID,101.613,VALID,0,VALID,23.5558,VALID,206,VALID,0,
2010-09-27, 03:26:04,VALID,1009.51,VALID,0,VALID,101.621,VALID,0,VALID,23.5966,VALID,206,VALID,0,
2010-09-27, 03:27:04,VALID,1009.53,VALID,0,VALID,101.621,VALID,0.105969,VALID,23.5966,VALID,206,VALID,0,
2010-09-27, 03:28:04,VALID,1009.51,VALID,0,VALID,101.613,VALID,0.105969,VALID,23.5753,VALID,278,VALID,0.443359,
2010-09-27, 03:29:04,VALID,1009.52,VALID,0,VALID,101.628,VALID,0.105969,VALID,23.5753,VALID,285,VALID,0.18125,
2010-09-27, 03:30:04,VALID,1009.54,VALID,0,VALID,101.621,VALID,0,VALID,23.5966,VALID,253,VALID,0.294141,
2010-09-27, 03:31:04,VALID,1009.53,VALID,0,VALID,101.606,VALID,0.105969,VALID,23.5966,VALID,251,VALID,0.378906,
2010-09-27, 03:32:04,VALID,1009.55,VALID,0,VALID,101.628,VALID,0.105969,VALID,23.5966,VALID,203,VALID,0.637109,
2010-09-27, 03:33:04,VALID,1009.54,VALID,0,VALID,101.644,VALID,0,VALID,23.5558,VALID,202,VALID,0.616406,
2010-09-27, 03:34:04,VALID,1009.54,VALID,0,VALID,101.636,VALID,0.105969,VALID,23.5771,VALID,202,VALID,0.307422,
2010-09-27, 03:35:04,VALID,1009.56,VALID,0,VALID,101.598,VALID,0.105969,VALID,23.6161,VALID,202,VALID,0.671484,
2010-09-27, 03:36:04,VALID,1009.54,VALID,0,VALID,101.628,VALID,0.105969,VALID,23.5753,VALID,196,VALID,0.631641,
2010-09-27, 03:37:04,VALID,1009.55,VALID,0,VALID,101.628,VALID,0.105969,VALID,23.5948,VALID,207,VALID,0.736328,
2010-09-27, 03:38:04,VALID,1009.55,VALID,0,VALID,101.59,VALID,0.105969,VALID,23.6143,VALID,208,VALID,0.553906,
2010-09-27, 03:39:04,VALID,1009.55,VALID,0,VALID,101.606,VALID,0.105969,VALID,23.6143,VALID,197,VALID,0.479297,
2010-09-27, 03:40:04,VALID,1009.56,VALID,0,VALID,101.598,VALID,0.105969,VALID,23.6338,VALID,197,VALID,0.746875,
2010-09-27, 03:41:04,VALID,1009.59,VALID,0,VALID,101.606,VALID,0.105969,VALID,23.6338,VALID,209,VALID,0.786719,
2010-09-27, 03:42:04,VALID,1009.63,VALID,0,VALID,101.606,VALID,0.105969,VALID,23.6338,VALID,197,VALID,0.848437,